Regional Weather Roundup
Issued by NWS

Home | Current Version | Previous Version | Text Only | Print | Product List | Glossary Off
Versions: 1 2 3 4 5 6 7 8 9 10 11 12 13 14 15 16 17 18 19 20 21 22 23 24 25 26 27 28 29 30 31 32 33 34 35 36 37 38 39 40 41 42 43 44 45 46 47 48 49 50

000
ASUS45 KCYS 181410
RWRWY

WYOMING REGIONAL WEATHER ROUNDUP
NATIONAL WEATHER SERVICE CHEYENNE WY
800 AM MDT THU SEP 18 2014

NOTE:  "FAIR" INDICATES FEW OR NO CLOUDS BELOW 12,000 FEET
WITH NO SIGNIFICANT WEATHER AND/OR OBSTRUCTIONS TO VISIBILITY.

WYZ001-181500-
YELLOWSTONE NATIONAL PARK

CITY           SKY/WX    TMP DP  RH WIND       PRES   REMARKS
LK YELLOWSTONE   N/A     45  42  89 CALM      30.19R
W YELLOWSTONE  NOT AVBL

$$
WYZ002>013-054>058-071-098>099-181500-
NORTHERN WYOMING

CITY           SKY/WX    TMP DP  RH WIND       PRES   REMARKS
JACKSON        NOT AVBL
CODY             N/A    N/A N/A N/A MISG        N/A
GREYBULL       CLOUDY    54  47  77 NW6       29.89R
WORLAND        PTSUNNY   55  46  71 S6        29.89S
SHERIDAN       MOSUNNY   55  48  77 CALM      29.83F
BUFFALO        PTSUNNY   67  39  35 SE12      29.91F
GILLETTE       SUNNY     63  47  55 SE5       29.89S
HULETT         FAIR      63  50  63 MISG      29.90
NEWCASTLE      FAIR      52  50  93 CALM      29.95

$$
WYZ014>020-022>026-101>103-181500-
CENTRAL WYOMING

CITY           SKY/WX    TMP DP  RH WIND       PRES   REMARKS
BIG PINEY      MOCLDY    43  38  82 CALM      30.15R
PINEDALE       MOSUNNY   41  37  87 CALM      30.15S
DUBOIS         FAIR      45  36  70 NW10      30.11S
LANDER         MOSUNNY   56  40  55 NW3       30.00R
RIVERTON       MOSUNNY   57  41  55 W8        30.02R
CASPER         MOSUNNY   60  38  43 SW12      30.00F
DOUGLAS        SUNNY     50  43  77 CALM      30.00F

$$
WYZ021-027>030-104>119-181500-
SOUTHERN WYOMING

CITY           SKY/WX    TMP DP  RH WIND       PRES   REMARKS
EVANSTON       CLEAR     57  37  47 SE9       30.14R
KEMMERER       SUNNY     50  37  62 N7        30.15R
FORT BRIDGER   FAIR      55  39  54 NE3       30.16R
ROCK SPRINGS   MOSUNNY   54  34  46 E3        30.12R
DIXON          FAIR      46  40  80 CALM      30.17R
RAWLINS        MOSUNNY   51  39  63 CALM      30.14S
SARATOGA       FAIR      54  37  54 SE6       30.17R
LARAMIE        SUNNY     49  38  65 S8        30.18S
CHEYENNE       SUNNY     58  39  49 W10       30.10R
TORRINGTON     CLOUDY    47  46  97 CALM      29.97R
PINE BLUFFS    FAIR      52  43  71 S5        30.04S

$$



USA.gov is the U.S. government's official web portal to all federal, state and local government web resources and services.